Location: Stillwell
(40.4602°N, 82.0928°W)
Time: 15:41:02
(UTC-04:00)

Aureole 2 Rocket - Pass Details

Date: 25 May 2018
Orbit: 323 x 525 km, 73.9° (Epoch: 24 June)

Event Time Altitude Azimuth Distance (km) Brightness Sun altitude
Rises 22:34:00 0° 338° (NNW) 2,230 7.3 -16.7°
Reaches altitude 10° 22:36:04 10° 335° (NNW) 1,344 6.0 -16.9°
Maximum altitude 22:38:56 63° 253° (WSW) 388 2.1 -17.3°
Enters shadow 22:39:20 54° 207° (SSW) 425 2.1 -17.3°
